SCP
0 0 0 0 0 0 0 0 0 0 0 0 0 0 -0 0 0 0 0 0 -0 -0 -0 0 0 0 0 0 0 0 0 0 0 0 0 0 0 -0 -0 -0 -0 -0 -0 -0 -0 -0 -0 -0 0
0 0 0 0 0 0 0 0 0 0 0 0 0 0 0 0 0 0 0 0 -0 0 0 0 0 0 0 0 0 0 0 0 0 0 0 0 0 0 0 -0 -0 -0 -0 -0 -0 -0 -0 -0 0
0 0 0 0 0 0 0 0 0 0 0 0 0 0 0 0 0 -0 0 -0 -0 0 0 0 0 0 0 0 0 0 0 0 0 0 0 0 0 0 0 -0 -0 -0 -0 -0 -0 -0 -0 -0 0
0 0 0 0 0 0 0 0 0 0 0 0 0 0 0 0 0 0 0 0 0 0 0 0 0 0 0 0 0 0 0 0 0 0 0 0 0 0 0 0 -0 -0 -0 -0 -0 -0 -0 -0 -0
0 0 0 0 0 0 0 0 0 0 0 0 0 0 0 0 0 0 0 0 0 0 0 0 0 0 0 0 0 -0 0 0 0 0 0 0 0 0 -0 -0 -0 -0 -0 -0 -0 -0 -0 -0 -0
0 0 0 0 0 0 0 0 0 0 0 0 0 0 0 0 0 0 0 0 0 0 0 0 0 0 0 -0 -0 -0 0 -0 0 0 0 0 0 0 0 -0 0 -0 -0 -0 -0 -0 -0 -0 -0
0 0 0 0 0 0 0 0 0 0 0 0 0 0 0 0 0 0 0 0 0 0 0 0 0 0 -0 -0 -0 -0 0 0 0 0 0 0 0 0 0 0 0 0 0 0 0 0 -0 -0 0
0 0 0 0 0 0 0 0 0 0 0 0 0 0 0 0 0 0 0 0 0 0 0 0 0 0 0 0 -0 -0 0 0 0 0 0 0 0 0 0 0 0 0 0 0 0 0 0 0 0
0 0 0 0 0 0 0 0 0 0 0 0 0 0 0 -0 -0 0 0 0 0 0 0 0 -0 0 -0 -0 0 0 0 0 0 0 0 0 0 0 0 0 0 0 0 0 0 0 0 0 0
0 0 0 0 0 0 0 0 0 0 0 0 0 0 0 0 0 -0 -0 0 0 0 0 0 0 0 -0 -0 0 0 0 0 0 0 0 0 0 0 0 0 0 0 0 0 0 0 0 0 0
0 0 0 0 0 0 0 0 0 0 0 0 0 0 0 0 -0 -0 0 0 0 0 0 0 -0 -0 -0 -0 -0 0 0 0 0 0 0 0 0 0 0 0 0 0 0 0 0 0 0 0 0
0 0 0 0 0 0 0 0 0 0 0 0 0 0 0 0 0 -0 0 0 0 0 0 0 0 0 0 -0 -0 0 0 0 0 0 0 0 0 0 0 0 0 0 0 0 0 0 0 0 0
0 0 0 0 0 0 0 0 0 0 0 0 0 0 0 0 0 -0 0 0 0 0 0 0 0 0 0 0 0 0 0 0 0 0 0 0 0 0 0 0 0 0 0 0 0 0 0 0 0
0 0 0 0 0 0 0 0 0 0 0 0 0 0 0 0 0 0 0 0 0 0 0 0 0 0 0 0 0 0 0 0 0 0 0 0 0 0 0 0 0 0 0 0 0 0 0 0 0
0 0 0 0 0 0 0 0 0 0 0 0 0 0 0 0 0 0 0 0 0 0 0 0 0 0 0 0 0 0 0 0 0 0 0 0 0 0 0 0 0 0 0 0 0 0 0 0 0
0 0 0 0 0 0 0 0 0 0 0 0 0 0 0 0 0 0 0 0 0 0 0 0 0 0 0 0 0 0 0 0 0 0 0 0 0 0 0 0 0 0 0 0 0 0 0 0 0
0 0 0 0 0 0 0 0 0 0 0 0 0 0 0 0 0 0 0 0 0 0 0 0 0 0 0 0 0 0 0 0 0 0 0 0 0 0 0 0 0 0 0 0 0 0 0 0 0
0 0 0 0 0 0 0 0 0 0 0 0 0 0 0 0 0 0 0 0 1 1 0 0 0 0 0 0 0 0 0 0 0 0 0 0 0 0 0 0 0 0 0 0 0 0 0 0 0
0 0 0 0 0 0 0 0 0 0 0 0 0 0 0 0 0 0 0 0 1 0 0 0 0 0 0 0 0 0 0 0 0 0 0 0 0 0 0 0 0 0 0 0 0 0 0 0 0
0 0 0 0 0 0 0 0 0 0 0 0 0 0 0 0 0 0 0 0 0 0 0 0 0 0 0 0 0 0 0 0 0 0 0 0 0 0 0 0 0 0 0 0 0 0 0 0 0
0 0 0 0 0 0 0 0 0 0 0 0 0 0 0 0 0 0 0 0 0 0 0 0 0 0 0 0 0 0 0 0 0 0 0 0 0 0 0 0 0 0 0 0 0 0 0 0 0
0 0 0 0 0 0 0 0 0 0 0 0 0 0 0 0 0 0 0 0 0 0 0 0 0 0 0 0 0 0 0 0 0 0 0 0 0 0 0 0 0 0 0 0 0 0 0 0 0
-0 0 0 0 0 0 0 0 0 0 0 0 0 0 0 0 0 0 0 0 0 0 0 0 0 0 0 0 0 0 0 0 0 0 0 0 0 0 0 0 0 0 0 0 0 0 0 0 0
0 0 0 0 0 0 0 0 0 0 0 0 0 0 0 0 0 0 0 0 0 0 0 0 0 0 0 0 0 0 0 0 0 0 0 0 0 0 0 0 0 0 0 0 0 0 0 0 0
0 0 0 0 0 0 0 0 0 0 0 0 0 0 0 0 0 0 0 0 0 0 0 0 0 0 0 0 0 0 0 0 0 0 0 0 0 0 0 0 0 0 0 0 0 0 0 0 0
0 0 0 0 0 0 0 0 0 0 0 0 0 0 0 0 0 0 0 0 0 0 0 0 0 0 0 0 0 0 0 0 0 0 0 0 0 0 0 0 0 0 0 0 0 0 0 0 0
-0 -0 0 0 0 0 0 0 0 0 0 0 0 0 0 0 0 0 0 0 0 0 0 0 0 0 0 0 0 0 0 0 0 0 0 0 0 0 0 0 0 0 0 0 0 0 0 0 0
0 -0 -0 0 0 0 0 0 0 0 0 0 0 0 0 0 0 0 0 0 0 0 0 0 0 0 0 0 0 0 0 0 0 0 0 0 0 0 0 0 0 0 0 0 0 0 0 0 0
-0 0 0 0 0 0 0 0 0 0 0 0 0 0 0 0 0 0 0 0 0 0 0 0 0 0 0 0 0 0 0 0 0 0 0 0 0 0 0 0 0 0 0 0 0 0 0 0 0
-0 -0 -0 0 0 0 0 0 0 0 0 0 0 0 0 0 0 0 0 0 0 0 0 0 0 0 0 0 0 0 0 0 0 0 0 0 0 0 0 0 0 0 0 0 0 0 0 0 0
Wind_Speed_500mb
5 10 9 4 10 10 17 7 6 13 11 8 16 11 7 10 8 6 20 22 31 34 30 29 25 23 22 19 17 11 14 15 13 11 12 10 10 11 10 8 8 5 7 6 10 16 17 23 23
7 15 8 5 12 17 14 11 16 11 6 18 13 9 9 6 8 18 25 28 35 32 28 26 24 21 17 15 16 15 16 16 14 13 12 10 8 7 8 6 5 4 4 5 10 13 15 18 19
12 14 8 7 15 21 15 4 8 13 23 18 11 1 2 7 10 31 19 38 38 32 31 28 22 20 18 19 20 20 18 17 16 16 15 14 13 12 12 10 9 11 12 12 12 13 14 15 17
11 7 8 13 27 20 22 6 8 25 15 11 8 11 9 4 21 17 35 38 36 32 27 25 23 22 22 22 20 19 17 16 15 16 15 15 17 17 16 14 12 14 14 15 17 17 15 14 13
15 9 15 21 30 27 18 7 14 22 19 20 20 15 12 18 17 30 35 36 34 31 27 26 26 24 24 23 21 21 20 17 15 18 18 19 19 19 17 16 13 13 11 13 15 16 17 16 13
16 11 18 27 31 22 19 15 18 24 18 18 16 25 16 20 29 37 37 35 32 32 29 26 27 26 25 24 25 24 21 21 19 15 15 18 13 7 7 7 8 7 6 7 10 13 14 14 13
23 18 30 31 28 25 24 18 24 31 25 24 16 23 16 27 35 39 37 34 33 31 29 27 26 28 29 29 26 23 19 16 12 14 13 6 4 4 4 3 2 2 2 3 5 8 10 11 11
18 13 32 29 28 33 10 21 12 30 29 12 21 15 19 40 45 41 37 35 35 32 30 29 28 27 26 25 22 20 15 13 11 4 4 3 3 5 2 2 2 2 3 3 4 6 7 8 9
13 17 29 38 32 26 9 21 10 20 17 21 22 4 14 52 52 47 42 39 37 35 33 30 30 29 26 23 20 18 13 9 2 2 4 5 9 9 11 4 3 3 4 4 5 6 6 8 8
27 26 41 30 32 20 15 21 23 21 31 21 24 11 33 56 56 54 50 48 43 42 39 35 33 31 28 24 20 18 13 12 8 4 8 11 12 12 9 4 5 8 11 12 14 15 14 14 15
25 41 30 27 37 24 23 20 20 25 24 41 38 31 49 58 55 53 49 47 47 45 42 39 37 35 32 28 22 23 16 12 7 7 9 10 7 8 8 8 12 15 17 18 18 18 19 21 22
29 39 42 33 26 21 27 17 19 34 25 22 27 36 48 59 59 57 52 48 49 47 44 41 38 36 33 30 25 18 17 13 9 8 9 7 7 10 13 14 17 19 19 17 17 18 20 22 24
37 37 36 37 48 35 25 32 31 33 32 14 15 39 53 56 54 50 48 46 47 47 45 43 43 37 34 31 28 22 19 13 9 8 9 7 9 13 17 19 19 18 17 14 13 15 16 17 20
18 24 49 47 36 39 31 33 17 27 27 19 27 39 48 52 55 52 52 51 50 46 45 44 46 42 33 34 32 27 22 17 11 11 11 9 13 15 19 21 19 15 12 8 7 8 10 15 20
26 35 36 37 56 27 34 43 28 28 21 35 27 33 39 45 48 53 50 50 47 46 46 47 46 41 36 40 38 31 24 18 14 11 13 12 15 18 20 21 18 12 7 2 2 7 13 18 22
22 30 37 39 35 45 29 50 41 28 24 33 36 32 33 39 45 44 44 43 44 44 52 51 50 46 44 37 34 32 25 21 17 13 15 15 19 20 22 20 16 11 7 5 8 10 13 16 18
25 30 37 38 29 33 36 42 37 27 29 29 35 38 42 43 42 45 44 43 41 38 38 44 53 54 45 35 23 26 30 26 20 17 18 19 21 22 23 21 18 14 11 11 13 16 15 14 18
29 35 38 38 35 30 33 36 14 27 32 31 32 39 43 41 47 47 40 41 34 38 52 52 51 56 44 35 32 32 36 30 24 20 21 23 25 25 25 24 20 17 15 16 18 18 22 25 30
31 35 43 36 34 35 43 37 23 27 28 33 33 35 38 42 42 40 38 49 63 54 64 57 58 44 47 42 42 39 37 32 27 23 25 27 27 26 26 25 23 21 19 19 20 25 28 24 33
34 36 39 36 34 34 39 39 33 24 28 35 38 38 39 34 38 42 54 51 68 59 53 53 54 45 46 41 39 36 34 31 27 26 28 28 27 27 27 26 25 23 23 26 28 30 28 27 35
36 36 38 36 24 32 30 38 43 26 28 31 35 35 36 38 39 42 45 51 51 55 54 51 51 44 43 41 39 37 34 28 27 28 28 29 28 27 26 27 27 30 32 34 37 38 39 29 26
36 36 42 33 22 26 29 24 40 37 32 31 38 36 34 32 34 33 39 48 52 51 55 51 48 45 45 41 43 35 25 23 24 24 28 28 26 27 29 32 34 37 41 42 43 44 43 40 28
35 30 32 38 26 34 21 19 20 15 33 34 36 44 40 36 45 43 40 39 43 43 50 52 46 49 43 47 41 34 25 20 17 20 21 26 29 31 33 36 40 43 45 45 43 41 39 35 28
21 20 24 6 6 15 28 24 23 19 23 23 19 31 36 33 29 29 31 35 38 39 43 46 49 48 49 45 41 37 30 25 22 21 21 24 29 32 35 39 41 42 42 43 43 40 39 28 26
16 19 8 10 7 8 6 14 15 9 7 1 3 19 24 19 18 20 26 31 35 37 41 46 53 55 52 45 41 37 33 29 25 25 24 29 33 36 38 37 37 40 41 41 39 38 38 37 37
14 20 3 6 10 13 8 12 6 7 3 1 1 14 17 13 13 14 19 25 31 35 41 50 57 54 47 42 38 34 31 30 30 30 31 32 30 30 30 33 34 36 39 39 39 39 40 37 34
4 3 12 12 6 6 10 10 12 1 4 5 11 16 13 10 12 15 19 23 30 37 44 51 49 45 40 35 30 29 28 29 28 24 22 22 25 28 29 30 32 35 37 40 42 44 36 34 36
6 21 7 11 3 7 8 1 7 6 6 9 13 16 13 14 16 20 23 28 31 36 41 42 38 35 31 28 27 24 22 20 17 17 20 24 26 27 29 31 32 35 36 36 33 36 34 37 39
3 8 11 2 7 8 5 12 11 13 12 11 15 17 17 21 23 25 29 31 35 38 38 37 33 30 28 26 21 18 15 14 17 21 22 22 24 28 29 31 32 33 33 31 33 36 38 39 40
14 11 11 7 5 5 5 7 10 12 7 11 20 20 22 24 27 29 33 37 37 37 36 35 33 30 24 20 16 14 14 16 18 17 19 25 28 30 30 32 33 30 32 35 35 38 39 42 45
Wind_Direction_500mb
199 170 167 179 247 240 256 238 274 188 190 158 148 188 226 3 327 11 142 150 155 154 163 164 167 171 180 190 201 190 172 168 170 177 184 190 182 190 173 154 149 105 83 72 39 67 73 66 57
203 166 162 238 251 242 246 229 232 207 132 148 146 168 190 110 90 129 142 153 152 154 156 165 164 167 167 168 165 157 147 144 144 143 147 150 151 129 127 136 129 114 83 62 61 70 71 69 59
185 166 204 232 246 248 263 221 239 156 145 159 144 189 125 119 125 147 158 152 152 156 158 169 168 163 153 148 143 139 134 131 128 125 121 119 115 112 110 108 100 91 86 82 73 65 69 77 78
190 206 221 233 238 242 257 287 184 160 172 189 179 144 118 143 147 156 150 152 152 156 155 167 163 155 150 146 142 137 133 130 125 117 115 114 112 103 102 103 102 91 82 78 74 69 72 83 93
196 227 235 237 245 250 242 257 188 189 181 180 186 147 127 134 144 146 148 152 154 151 153 157 156 152 149 147 141 135 127 123 125 110 121 121 110 107 104 113 104 98 84 75 73 70 69 78 89
200 244 235 234 238 241 254 219 186 202 196 171 185 152 136 156 148 150 151 153 155 154 152 159 155 152 151 146 139 131 121 109 106 122 128 136 128 106 110 125 110 101 79 59 58 64 69 71 72
233 219 239 246 247 246 240 188 198 200 198 188 173 165 142 158 158 154 153 154 155 157 155 155 156 154 150 144 139 132 124 127 127 129 148 158 165 176 165 151 105 88 68 64 64 63 67 69 65
224 251 241 235 243 246 212 195 225 204 204 160 177 183 172 172 161 157 156 156 157 160 158 159 159 157 154 151 141 137 137 135 144 180 216 229 186 183 162 151 150 127 133 113 83 70 59 55 48
208 237 235 228 232 237 184 205 195 184 167 192 196 211 156 166 160 161 160 161 163 164 163 165 160 162 165 157 158 155 153 158 188 130 143 143 132 127 125 169 167 167 135 121 100 81 64 55 48
218 230 236 245 238 246 227 220 177 182 195 202 193 171 153 163 167 169 170 170 171 170 170 167 165 166 162 160 163 159 161 154 165 150 141 141 133 143 149 173 142 123 113 105 95 87 76 64 54
228 243 239 242 242 247 229 205 194 205 207 212 206 180 166 170 174 177 177 177 175 173 174 172 170 167 168 159 163 181 169 181 183 159 151 155 175 183 184 151 135 122 108 98 84 76 71 62 56
251 243 252 239 244 230 224 222 211 215 215 202 218 190 178 178 182 183 182 180 178 179 179 177 176 175 174 174 176 177 175 185 184 173 171 161 173 171 164 155 140 125 112 100 91 77 63 57 53
248 254 248 246 247 243 243 225 226 224 225 210 205 187 191 190 188 187 185 182 181 183 182 182 186 181 182 186 188 183 187 190 197 194 189 177 167 171 167 155 147 137 125 109 85 70 57 46 38
290 283 253 248 248 241 230 235 208 232 216 211 188 195 200 198 192 186 189 186 184 186 187 187 190 189 190 197 208 205 200 200 203 201 200 191 175 175 170 163 158 151 138 116 85 56 35 22 16
278 270 263 244 240 244 231 246 227 236 200 202 200 195 197 203 196 197 191 191 187 189 191 194 194 197 198 208 214 209 213 210 205 205 205 205 185 178 178 175 173 173 165 149 20 358 358 0 358
267 261 249 239 231 225 211 240 224 209 194 208 202 197 194 209 204 199 197 195 193 196 201 202 201 203 207 215 221 209 211 213 211 212 210 206 193 187 187 190 195 200 219 272 308 323 335 341 344
235 253 241 245 216 221 208 240 241 191 200 206 200 196 202 198 200 200 197 196 198 203 212 208 209 207 211 216 221 213 213 215 217 221 216 207 199 196 197 205 214 224 250 281 299 302 306 320 327
258 248 244 253 216 222 219 233 202 202 194 194 193 192 198 196 203 196 196 197 192 245 225 218 212 212 211 214 213 218 207 216 220 223 216 207 204 204 209 217 227 240 259 279 287 289 299 307 314
274 263 263 242 240 215 226 221 201 191 194 189 192 191 196 202 195 200 194 211 230 224 224 227 221 230 214 216 216 205 210 217 222 225 215 209 210 212 218 226 237 245 257 274 290 297 300 305 309
255 254 249 259 226 219 228 223 218 191 201 196 197 199 209 208 198 200 204 209 218 223 225 220 225 226 214 215 212 202 211 215 223 223 216 214 217 221 228 236 243 254 269 281 286 290 290 291 295
248 251 234 245 211 224 237 228 221 217 211 211 210 208 209 212 209 209 208 214 217 220 217 217 222 220 211 212 201 197 207 211 221 218 217 218 224 232 238 245 252 260 269 277 283 284 286 280 280
252 244 238 242 226 212 210 222 210 211 211 213 212 209 204 204 204 202 205 215 216 213 219 221 219 204 203 205 192 201 209 219 224 223 221 227 234 240 245 251 259 264 271 275 277 279 279 278 273
253 255 228 242 240 238 192 232 145 186 217 217 221 221 212 205 217 217 218 217 213 209 216 217 210 195 199 187 190 195 199 200 203 215 225 232 241 247 255 259 263 267 270 273 272 276 275 272 266
262 236 216 237 250 225 202 226 206 190 214 204 211 205 204 197 202 206 212 215 212 211 208 204 194 189 184 184 192 199 207 208 210 217 228 240 249 256 259 261 264 267 271 275 276 274 274 267 267
214 230 203 207 189 208 169 203 240 143 176 211 146 191 186 181 189 193 198 195 198 198 194 188 184 180 180 188 195 204 211 218 225 234 241 253 256 257 260 265 269 272 274 276 277 277 276 277 274
200 216 295 288 187 130 138 206 165 32 91 320 64 153 162 164 171 169 177 180 184 182 180 176 179 179 185 191 200 212 222 232 241 249 252 253 254 261 266 268 271 276 280 279 278 278 278 276 277
116 145 75 325 260 209 156 209 188 177 145 113 141 150 136 128 143 152 160 157 165 170 175 176 178 182 188 197 210 222 230 240 243 240 244 254 262 267 271 277 281 282 280 279 279 281 281 279 279
292 144 120 216 300 118 135 3 19 73 192 145 148 141 119 118 124 131 138 145 152 164 170 170 177 185 193 201 207 209 212 219 230 244 256 263 268 275 284 285 283 282 282 285 285 286 284 282 282
109 179 218 275 308 3 65 82 24 26 16 159 140 124 121 122 124 127 129 135 147 154 157 162 170 176 178 182 189 198 207 227 247 257 265 273 283 287 286 286 286 286 285 285 286 286 285 283 283
282 312 291 288 125 31 360 41 30 14 25 146 134 125 123 124 125 128 133 139 141 146 149 156 159 167 174 180 186 206 231 247 260 270 276 283 284 290 290 288 286 286 289 290 288 286 285 284 283
Wind_Speed_850mb
5 10 9 4 10 10 17 7 6 13 11 8 16 11 7 10 8 6 20 22 31 34 30 29 25 23 22 19 17 11 14 15 13 11 12 10 10 11 10 8 8 5 7 6 10 16 17 23 23
7 15 8 5 12 17 14 11 16 11 6 18 13 9 9 6 8 18 25 28 35 32 28 26 24 21 17 15 16 15 16 16 14 13 12 10 8 7 8 6 5 4 4 5 10 13 15 18 19
12 14 8 7 15 21 15 4 8 13 23 18 11 1 2 7 10 31 19 38 38 32 31 28 22 20 18 19 20 20 18 17 16 16 15 14 13 12 12 10 9 11 12 12 12 13 14 15 17
11 7 8 13 27 20 22 6 8 25 15 11 8 11 9 4 21 17 35 38 36 32 27 25 23 22 22 22 20 19 17 16 15 16 15 15 17 17 16 14 12 14 14 15 17 17 15 14 13
15 9 15 21 30 27 18 7 14 22 19 20 20 15 12 18 17 30 35 36 34 31 27 26 26 24 24 23 21 21 20 17 15 18 18 19 19 19 17 16 13 13 11 13 15 16 17 16 13
16 11 18 27 31 22 19 15 18 24 18 18 16 25 16 20 29 37 37 35 32 32 29 26 27 26 25 24 25 24 21 21 19 15 15 18 13 7 7 7 8 7 6 7 10 13 14 14 13
23 18 30 31 28 25 24 18 24 31 25 24 16 23 16 27 35 39 37 34 33 31 29 27 26 28 29 29 26 23 19 16 12 14 13 6 4 4 4 3 2 2 2 3 5 8 10 11 11
18 13 32 29 28 33 10 21 12 30 29 12 21 15 19 40 45 41 37 35 35 32 30 29 28 27 26 25 22 20 15 13 11 4 4 3 3 5 2 2 2 2 3 3 4 6 7 8 9
13 17 29 38 32 26 9 21 10 20 17 21 22 4 14 52 52 47 42 39 37 35 33 30 30 29 26 23 20 18 13 9 2 2 4 5 9 9 11 4 3 3 4 4 5 6 6 8 8
27 26 41 30 32 20 15 21 23 21 31 21 24 11 33 56 56 54 50 48 43 42 39 35 33 31 28 24 20 18 13 12 8 4 8 11 12 12 9 4 5 8 11 12 14 15 14 14 15
25 41 30 27 37 24 23 20 20 25 24 41 38 31 49 58 55 53 49 47 47 45 42 39 37 35 32 28 22 23 16 12 7 7 9 10 7 8 8 8 12 15 17 18 18 18 19 21 22
29 39 42 33 26 21 27 17 19 34 25 22 27 36 48 59 59 57 52 48 49 47 44 41 38 36 33 30 25 18 17 13 9 8 9 7 7 10 13 14 17 19 19 17 17 18 20 22 24
37 37 36 37 48 35 25 32 31 33 32 14 15 39 53 56 54 50 48 46 47 47 45 43 43 37 34 31 28 22 19 13 9 8 9 7 9 13 17 19 19 18 17 14 13 15 16 17 20
18 24 49 47 36 39 31 33 17 27 27 19 27 39 48 52 55 52 52 51 50 46 45 44 46 42 33 34 32 27 22 17 11 11 11 9 13 15 19 21 19 15 12 8 7 8 10 15 20
26 35 36 37 56 27 34 43 28 28 21 35 27 33 39 45 48 53 50 50 47 46 46 47 46 41 36 40 38 31 24 18 14 11 13 12 15 18 20 21 18 12 7 2 2 7 13 18 22
22 30 37 39 35 45 29 50 41 28 24 33 36 32 33 39 45 44 44 43 44 44 52 51 50 46 44 37 34 32 25 21 17 13 15 15 19 20 22 20 16 11 7 5 8 10 13 16 18
25 30 37 38 29 33 36 42 37 27 29 29 35 38 42 43 42 45 44 43 41 38 38 44 53 54 45 35 23 26 30 26 20 17 18 19 21 22 23 21 18 14 11 11 13 16 15 14 18
29 35 38 38 35 30 33 36 14 27 32 31 32 39 43 41 47 47 40 41 34 38 52 52 51 56 44 35 32 32 36 30 24 20 21 23 25 25 25 24 20 17 15 16 18 18 22 25 30
31 35 43 36 34 35 43 37 23 27 28 33 33 35 38 42 42 40 38 49 63 54 64 57 58 44 47 42 42 39 37 32 27 23 25 27 27 26 26 25 23 21 19 19 20 25 28 24 33
34 36 39 36 34 34 39 39 33 24 28 35 38 38 39 34 38 42 54 51 68 59 53 53 54 45 46 41 39 36 34 31 27 26 28 28 27 27 27 26 25 23 23 26 28 30 28 27 35
36 36 38 36 24 32 30 38 43 26 28 31 35 35 36 38 39 42 45 51 51 55 54 51 51 44 43 41 39 37 34 28 27 28 28 29 28 27 26 27 27 30 32 34 37 38 39 29 26
36 36 42 33 22 26 29 24 40 37 32 31 38 36 34 32 34 33 39 48 52 51 55 51 48 45 45 41 43 35 25 23 24 24 28 28 26 27 29 32 34 37 41 42 43 44 43 40 28
35 30 32 38 26 34 21 19 20 15 33 34 36 44 40 36 45 43 40 39 43 43 50 52 46 49 43 47 41 34 25 20 17 20 21 26 29 31 33 36 40 43 45 45 43 41 39 35 28
21 20 24 6 6 15 28 24 23 19 23 23 19 31 36 33 29 29 31 35 38 39 43 46 49 48 49 45 41 37 30 25 22 21 21 24 29 32 35 39 41 42 42 43 43 40 39 28 26
16 19 8 10 7 8 6 14 15 9 7 1 3 19 24 19 18 20 26 31 35 37 41 46 53 55 52 45 41 37 33 29 25 25 24 29 33 36 38 37 37 40 41 41 39 38 38 37 37
14 20 3 6 10 13 8 12 6 7 3 1 1 14 17 13 13 14 19 25 31 35 41 50 57 54 47 42 38 34 31 30 30 30 31 32 30 30 30 33 34 36 39 39 39 39 40 37 34
4 3 12 12 6 6 10 10 12 1 4 5 11 16 13 10 12 15 19 23 30 37 44 51 49 45 40 35 30 29 28 29 28 24 22 22 25 28 29 30 32 35 37 40 42 44 36 34 36
6 21 7 11 3 7 8 1 7 6 6 9 13 16 13 14 16 20 23 28 31 36 41 42 38 35 31 28 27 24 22 20 17 17 20 24 26 27 29 31 32 35 36 36 33 36 34 37 39
3 8 11 2 7 8 5 12 11 13 12 11 15 17 17 21 23 25 29 31 35 38 38 37 33 30 28 26 21 18 15 14 17 21 22 22 24 28 29 31 32 33 33 31 33 36 38 39 40
14 11 11 7 5 5 5 7 10 12 7 11 20 20 22 24 27 29 33 37 37 37 36 35 33 30 24 20 16 14 14 16 18 17 19 25 28 30 30 32 33 30 32 35 35 38 39 42 45
Wind_Direction_850mb
199 170 167 179 247 240 256 238 274 188 190 158 148 188 226 3 327 11 142 150 155 154 163 164 167 171 180 190 201 190 172 168 170 177 184 190 182 190 173 154 149 105 83 72 39 67 73 66 57
203 166 162 238 251 242 246 229 232 207 132 148 146 168 190 110 90 129 142 153 152 154 156 165 164 167 167 168 165 157 147 144 144 143 147 150 151 129 127 136 129 114 83 62 61 70 71 69 59
185 166 204 232 246 248 263 221 239 156 145 159 144 189 125 119 125 147 158 152 152 156 158 169 168 163 153 148 143 139 134 131 128 125 121 119 115 112 110 108 100 91 86 82 73 65 69 77 78
190 206 221 233 238 242 257 287 184 160 172 189 179 144 118 143 147 156 150 152 152 156 155 167 163 155 150 146 142 137 133 130 125 117 115 114 112 103 102 103 102 91 82 78 74 69 72 83 93
196 227 235 237 245 250 242 257 188 189 181 180 186 147 127 134 144 146 148 152 154 151 153 157 156 152 149 147 141 135 127 123 125 110 121 121 110 107 104 113 104 98 84 75 73 70 69 78 89
200 244 235 234 238 241 254 219 186 202 196 171 185 152 136 156 148 150 151 153 155 154 152 159 155 152 151 146 139 131 121 109 106 122 128 136 128 106 110 125 110 101 79 59 58 64 69 71 72
233 219 239 246 247 246 240 188 198 200 198 188 173 165 142 158 158 154 153 154 155 157 155 155 156 154 150 144 139 132 124 127 127 129 148 158 165 176 165 151 105 88 68 64 64 63 67 69 65
224 251 241 235 243 246 212 195 225 204 204 160 177 183 172 172 161 157 156 156 157 160 158 159 159 157 154 151 141 137 137 135 144 180 216 229 186 183 162 151 150 127 133 113 83 70 59 55 48
208 237 235 228 232 237 184 205 195 184 167 192 196 211 156 166 160 161 160 161 163 164 163 165 160 162 165 157 158 155 153 158 188 130 143 143 132 127 125 169 167 167 135 121 100 81 64 55 48
218 230 236 245 238 246 227 220 177 182 195 202 193 171 153 163 167 169 170 170 171 170 170 167 165 166 162 160 163 159 161 154 165 150 141 141 133 143 149 173 142 123 113 105 95 87 76 64 54
228 243 239 242 242 247 229 205 194 205 207 212 206 180 166 170 174 177 177 177 175 173 174 172 170 167 168 159 163 181 169 181 183 159 151 155 175 183 184 151 135 122 108 98 84 76 71 62 56
251 243 252 239 244 230 224 222 211 215 215 202 218 190 178 178 182 183 182 180 178 179 179 177 176 175 174 174 176 177 175 185 184 173 171 161 173 171 164 155 140 125 112 100 91 77 63 57 53
248 254 248 246 247 243 243 225 226 224 225 210 205 187 191 190 188 187 185 182 181 183 182 182 186 181 182 186 188 183 187 190 197 194 189 177 167 171 167 155 147 137 125 109 85 70 57 46 38
290 283 253 248 248 241 230 235 208 232 216 211 188 195 200 198 192 186 189 186 184 186 187 187 190 189 190 197 208 205 200 200 203 201 200 191 175 175 170 163 158 151 138 116 85 56 35 22 16
278 270 263 244 240 244 231 246 227 236 200 202 200 195 197 203 196 197 191 191 187 189 191 194 194 197 198 208 214 209 213 210 205 205 205 205 185 178 178 175 173 173 165 149 20 358 358 0 358
267 261 249 239 231 225 211 240 224 209 194 208 202 197 194 209 204 199 197 195 193 196 201 202 201 203 207 215 221 209 211 213 211 212 210 206 193 187 187 190 195 200 219 272 308 323 335 341 344
235 253 241 245 216 221 208 240 241 191 200 206 200 196 202 198 200 200 197 196 198 203 212 208 209 207 211 216 221 213 213 215 217 221 216 207 199 196 197 205 214 224 250 281 299 302 306 320 327
258 248 244 253 216 222 219 233 202 202 194 194 193 192 198 196 203 196 196 197 192 245 225 218 212 212 211 214 213 218 207 216 220 223 216 207 204 204 209 217 227 240 259 279 287 289 299 307 314
274 263 263 242 240 215 226 221 201 191 194 189 192 191 196 202 195 200 194 211 230 224 224 227 221 230 214 216 216 205 210 217 222 225 215 209 210 212 218 226 237 245 257 274 290 297 300 305 309
255 254 249 259 226 219 228 223 218 191 201 196 197 199 209 208 198 200 204 209 218 223 225 220 225 226 214 215 212 202 211 215 223 223 216 214 217 221 228 236 243 254 269 281 286 290 290 291 295
248 251 234 245 211 224 237 228 221 217 211 211 210 208 209 212 209 209 208 214 217 220 217 217 222 220 211 212 201 197 207 211 221 218 217 218 224 232 238 245 252 260 269 277 283 284 286 280 280
252 244 238 242 226 212 210 222 210 211 211 213 212 209 204 204 204 202 205 215 216 213 219 221 219 204 203 205 192 201 209 219 224 223 221 227 234 240 245 251 259 264 271 275 277 279 279 278 273
253 255 228 242 240 238 192 232 145 186 217 217 221 221 212 205 217 217 218 217 213 209 216 217 210 195 199 187 190 195 199 200 203 215 225 232 241 247 255 259 263 267 270 273 272 276 275 272 266
262 236 216 237 250 225 202 226 206 190 214 204 211 205 204 197 202 206 212 215 212 211 208 204 194 189 184 184 192 199 207 208 210 217 228 240 249 256 259 261 264 267 271 275 276 274 274 267 267
214 230 203 207 189 208 169 203 240 143 176 211 146 191 186 181 189 193 198 195 198 198 194 188 184 180 180 188 195 204 211 218 225 234 241 253 256 257 260 265 269 272 274 276 277 277 276 277 274
200 216 295 288 187 130 138 206 165 32 91 320 64 153 162 164 171 169 177 180 184 182 180 176 179 179 185 191 200 212 222 232 241 249 252 253 254 261 266 268 271 276 280 279 278 278 278 276 277
116 145 75 325 260 209 156 209 188 177 145 113 141 150 136 128 143 152 160 157 165 170 175 176 178 182 188 197 210 222 230 240 243 240 244 254 262 267 271 277 281 282 280 279 279 281 281 279 279
292 144 120 216 300 118 135 3 19 73 192 145 148 141 119 118 124 131 138 145 152 164 170 170 177 185 193 201 207 209 212 219 230 244 256 263 268 275 284 285 283 282 282 285 285 286 284 282 282
109 179 218 275 308 3 65 82 24 26 16 159 140 124 121 122 124 127 129 135 147 154 157 162 170 176 178 182 189 198 207 227 247 257 265 273 283 287 286 286 286 286 285 285 286 286 285 283 283
282 312 291 288 125 31 360 41 30 14 25 146 134 125 123 124 125 128 133 139 141 146 149 156 159 167 174 180 186 206 231 247 260 270 276 283 284 290 290 288 286 286 289 290 288 286 285 284 283